Starlink 11294

operational
NORAD ID: 61054 Int'l Des: 2024-164 Owner: SPXS Country: US Constellation: starlink
LEOCIRCULAR

About Starlink 11294

Description loading...

Live Position

Loading 3D Globe...

Upcoming Passes

Altitude History

Altitude vs Time

uPlot chart will show altitude changes over time

Two-Line Element Set

1 61054U 24164E 25305.08978792 .00001635 00000-0 18347-4 0 9990
2 61054 53.1597 225.0140 0001486 73.8945 286.2236 15.69721218 65223
Epoch: Nov 1, 2025 • Age: 19 hours

Current Status

Altitude 360.0 km
Velocity 7.70 km/s
Sub-Earth Point 8.08°N, 35.44°E
Launch Date Sep 13, 2024
Age 1.1 years
Type internet

Technical Details

Classification Payload
Mass 960.00 kg
Dry Mass 910.00 kg
Total Mass 960.00 kg
Length 0.30 m
Diameter 4.10 m
Span 29.00 m
Shape Box + pan
Manufacturer SPXS
Bus Type Starlink V2MD
Phase Status In Orbit
Owner/State SPXS/US

Large Constellations

Loading constellations...